NOAA 16 DEB, 41223

Orbit data source: Space-Track

NOAA 16 DEB, 41223 is space debris in SSO originally from a launch on Thu, 21 Sep 2000 UTC launched from the Air Force Western Test Range (AFWTR). Debris objects in space refer to the collection of defunct objects orbiting the Earth. Examples of debris include non-operational satellites, rocket bodies, and fragments generated from explosions, collisions, or faulty payload assembly.

Loading next visibility...
Identifier
41223, 2000-055EC
Orbit
SSO
Country
Flag of USUS
Related business
Manufacturer
Unknown
Mission
Spacecraft
Bus & Motor
Unknown
Mass
Unknown
Launch date (UTC)
2000-09-21 (26 years ago)
Launch vehicle
Unknown
Launch site
Air Force Western Test Range (AFWTR)
Object type
Payload
Rocket body
Debris
Shape & HBR
Unknown shape, 0.1 m
Radar Cross Section
Medium (>0.1 m² and <1 m²)

Expand to show TLE details & history
Last TLE update: 12 hours ago

TLE from 12 hours ago
0 NOAA 16 DEB
1 41223U 00055EC  26219.94656615  .00000939  00000-0  50880-3 0  9999
2 41223  98.6599 215.9735 0033765  99.2997 261.1997 14.14534209547320
Epoch: 2026-08-07T22:43Z
TLE epoch observation values (Epoch: 2026-08-07T22:43:03.315Z)
Latitude
-0.00006°
Longitude
-81.25527°
Altitude
850.618 km
Speed
7.425 km/s
True Right ascension
14h 23m 53s
True Declination
0° 00' 00"
Sunlit
Object was in daylight at epoch
Visualization orbit readout
Latitude
Unknown
Longitude
Unknown
Altitude
Unknown
Speed
Unknown
Apparent Right ascension
Unknown
Apparent Declination
Unknown
Sunlit
N/A
Visualization observer readout
Local Sidereal Time
00:33:38
Azimuth
Unknown
Elevation
Unknown
Doppler factor
Unknown
Orbital elements
Apogee altitude
865.436 km
Perigee altitude
816.685 km
Semi-major axis
7,219.198 km
Eccentricity
0.00338
Inclination
98.6599°
RAAN
215.9735°
Arg. of periapsis
99.2997°
True anomaly
260.81759°
Mean anomaly
261.1997°
Eccentric anomaly
261.00862°
Mean motion
3.53842 °/min
Orbital period
101.74 mins
BSTAR
0.0005088
Loading maneuver chart data...
Computing Atmospheric mass density...
Loading historical data...
Loading historical data...
Loading historical data...
Loading historical data...
Loading historical data...
Loading historical data...
Loading historical data...

Documentation

Showing up to 5 results
|